Tracking 25703 objects as of 2-Jul-2022
HD Live streaming from Space Station
objects crossing your sky now

NOAA 16 DEB

Track NOAA 16 DEB now!
10-day predictions


NORAD ID: 42384
Int'l Code: 2000-055SC
Perigee: 831.8 km
Apogee: 859.9 km
Inclination: 98.8 °
Period: 101.7 minutes
Semi major axis: 7216 km
RCS: Unknown
Launch date: September 21, 2000
Source: United States (US)
Launch site: AIR FORCE WESTERN TEST RANGE (AFWTR)

Note: This is SATELLITE DEBRIS
aabbcc
Your satellite tracking list
Your tracking list is empty




NASA's NSSDC Master Catalog

Two Line Element Set (TLE):
1 42384U 00055SC  22182.45142413  .00001069  00000-0  56251-3 0  9998
2 42384  98.7513 252.9967 0019412 174.5893 185.5494 14.16056897326060
Source of the keplerian elements: AFSPC